Location: Unspecified
(0.0000°N, 0.0000°E)
Time: 23:54:12
(UTC+00:00)

Tiros 1 - All Passes

Search period start: 24 March 2017 00:00
Search period end: 03 April 2017 00:00
Orbit: 630 x 665 km, 48.4° (Epoch: 23 March)

Date Brightness Start Highest point End Pass type
(mag) Time Alt. Az. Time Alt. Az. Time Alt. Az.
24 Mar - 07:13:04 10° N 07:17:08 30° NE 07:21:11 10° ESE daylight
24 Mar - 08:55:46 10° W 08:59:10 20° SW 09:02:34 10° S daylight
24 Mar - 19:25:30 10° SSW 19:30:10 57° SE 19:34:52 10° NE visible
24 Mar - 21:10:35 10° WNW 21:12:17 12° NW 21:13:59 10° NNW visible
25 Mar - 07:38:40 10° NW 07:43:19 77° SW 07:47:56 10° SE daylight
25 Mar - 18:11:25 10° SSE 18:14:17 16° SE 18:17:09 10° E daylight
25 Mar - 19:51:51 10° WSW 19:56:21 41° NW 20:00:52 10° NNE visible
26 Mar - 06:23:32 10° N 06:27:28 27° NE 06:31:23 10° ESE daylight
26 Mar - 08:05:52 10° WNW 08:09:30 22° SW 08:13:08 10° S daylight
26 Mar - 18:35:53 10° SSW 18:40:30 50° SE 18:45:08 10° NE visible
26 Mar - 20:20:20 10° WNW 20:22:36 13° NW 20:24:51 10° NNW visible
27 Mar - 06:48:59 10° NW 06:53:39 87° SW 06:58:18 10° SE daylight
27 Mar - 17:22:08 10° SSE 17:24:35 14° SE 17:27:03 10° E daylight
27 Mar - 19:02:06 10° SW 19:06:40 47° NW 19:11:15 10° NNE visible
28 Mar - 05:34:01 10° N 05:37:48 24° NE 05:41:34 10° ESE visible
28 Mar - 07:16:00 10° WNW 07:19:49 25° SW 07:23:39 10° S daylight
28 Mar - 17:46:18 10° SSW 17:50:49 44° SE 17:55:22 10° ENE daylight
28 Mar - 19:30:15 10° W 19:32:54 15° NW 19:35:34 10° NNW visible
29 Mar - 05:59:19 10° NW 06:03:59 83° NE 06:08:39 10° SE daylight
29 Mar - 16:32:57 10° SSE 16:34:55 12° SE 16:36:51 10° ESE daylight
29 Mar - 18:12:22 10° SW 18:16:59 53° NW 18:21:38 10° NNE daylight
30 Mar - 04:44:31 10° N 04:48:08 22° NE 04:51:43 10° E visible
30 Mar - 06:26:09 10° WNW 06:30:10 28° SW 06:34:09 10° S daylight
30 Mar - 16:56:44 10° SSW 17:01:08 39° SE 17:05:35 10° ENE daylight
30 Mar - 18:40:14 10° W 18:43:12 16° NW 18:46:12 10° N visible
31 Mar - 05:09:38 10° NNW 05:14:20 74° NE 05:18:59 10° SE visible
31 Mar - 15:44:02 10° SE 15:45:13 11° SE 15:46:24 10° ESE daylight
31 Mar - 17:22:39 10° SW 17:27:18 60° NW 17:32:00 10° NNE daylight
01 Apr - 03:55:03 10° N 03:58:27 20° NE 04:01:49 10° E visible
01 Apr - 05:36:19 10° WNW 05:40:29 32° SW 05:44:38 10° SSE visible
01 Apr - 16:07:11 10° SSW 16:11:28 35° SE 16:15:47 10° ENE daylight
01 Apr - 17:50:16 10° W 17:53:31 18° NW 17:56:47 10° N daylight
02 Apr - 04:19:59 10° NNW 04:24:40 65° NE 04:29:17 10° SE visible
02 Apr - 16:32:57 10° SW 16:37:38 68° NW 16:42:21 10° NNE daylight
